GEFSGL_prec_meanprecacc_336.txt.gz
Total_Precipitation_Accumulation
1.59 1.63 1.66 1.72 1.85 2.02 2.19 2.28 2.20 2.24 2.30 2.27 2.11 2.04 2.01 1.94 1.96 2.03 2.00 2.03 2.09 2.08 2.08 2.03 1.88 1.77 1.85 1.89 1.93 1.99 2.04 2.17 2.12 1.57 1.32 1.29 1.34 1.31 1.33 1.24 1.15 1.13 1.09
1.63 1.63 1.66 1.67 1.69 1.79 1.89 2.08 2.12 2.18 2.18 2.23 2.17 2.04 1.95 1.87 1.83 1.86 1.84 1.80 1.81 1.83 1.84 1.90 1.85 1.74 1.73 1.76 1.83 1.80 1.74 1.73 1.83 1.66 1.34 1.24 1.21 1.13 1.16 1.18 1.12 1.08 1.01
1.62 1.67 1.66 1.62 1.58 1.60 1.69 1.83 1.91 1.98 2.01 2.04 2.13 2.06 1.93 1.85 1.76 1.72 1.70 1.68 1.65 1.61 1.63 1.71 1.75 1.78 1.76 1.73 1.72 1.69 1.64 1.62 1.68 1.72 1.44 1.24 1.19 1.12 1.13 1.13 1.09 1.06 0.99
1.57 1.67 1.70 1.66 1.61 1.55 1.62 1.71 1.78 1.82 1.88 1.87 1.92 2.01 2.02 1.96 1.86 1.76 1.70 1.66 1.64 1.58 1.55 1.62 1.64 1.64 1.59 1.55 1.59 1.55 1.57 1.63 1.63 1.70 1.61 1.42 1.30 1.20 1.22 1.25 1.24 1.11 1.04
1.46 1.62 1.68 1.72 1.79 1.80 1.72 1.69 1.71 1.73 1.80 1.81 1.81 1.89 1.93 1.97 1.94 1.85 1.78 1.73 1.71 1.69 1.61 1.57 1.59 1.65 1.58 1.53 1.53 1.54 1.57 1.68 1.74 1.79 1.68 1.49 1.36 1.30 1.24 1.15 1.21 1.19 1.14
1.29 1.43 1.52 1.62 1.75 1.90 1.92 1.86 1.80 1.74 1.76 1.83 1.82 1.86 1.88 1.89 2.11 2.09 1.90 1.82 1.77 1.67 1.57 1.46 1.46 1.57 1.57 1.58 1.57 1.55 1.63 1.77 1.86 1.88 1.74 1.51 1.23 1.14 1.19 1.33 1.46 1.62 1.57
1.16 1.21 1.32 1.50 1.59 1.71 1.91 2.01 1.94 1.88 1.91 1.93 1.96 1.99 1.97 2.04 2.15 1.99 1.92 1.76 1.70 1.58 1.45 1.36 1.32 1.31 1.41 1.33 1.40 1.48 1.49 1.60 1.69 1.70 1.63 1.32 1.15 1.10 1.35 1.59 1.63 1.65 1.48
1.15 1.21 1.33 1.42 1.50 1.65 1.83 1.99 2.07 2.05 2.10 2.09 2.07 2.07 2.05 2.05 2.09 1.95 1.92 1.72 1.61 1.47 1.35 1.25 1.22 1.20 1.24 1.35 1.44 1.52 1.41 1.32 1.29 1.23 1.21 1.15 1.13 1.22 1.49 1.79 1.95 2.01 1.75
1.10 1.17 1.25 1.37 1.46 1.57 1.74 1.90 2.00 2.05 2.12 2.14 2.03 1.94 1.87 1.86 1.91 1.78 1.78 1.68 1.67 1.53 1.39 1.31 1.26 1.19 1.32 1.54 1.63 1.64 1.45 1.26 1.23 1.26 1.31 1.32 1.40 1.48 1.60 1.92 2.20 2.38 2.14
1.11 1.14 1.16 1.27 1.39 1.48 1.60 1.75 1.89 1.97 1.99 1.95 1.87 1.78 1.69 1.65 1.75 1.66 1.67 1.67 1.69 1.56 1.45 1.39 1.46 1.38 1.48 1.62 1.59 1.61 1.51 1.27 1.18 1.17 1.20 1.23 1.17 1.20 1.43 1.60 2.05 2.55 2.28
1.12 1.15 1.16 1.21 1.34 1.42 1.43 1.49 1.61 1.69 1.70 1.68 1.59 1.58 1.56 1.56 1.61 1.54 1.54 1.57 1.62 1.61 1.55 1.44 1.40 1.60 1.67 1.70 1.60 1.41 1.40 1.45 1.34 1.26 1.23 1.22 1.20 1.18 1.19 1.22 1.51 2.25 2.63
1.11 1.14 1.19 1.23 1.27 1.32 1.32 1.32 1.34 1.39 1.47 1.50 1.43 1.41 1.46 1.50 1.53 1.55 1.58 1.61 1.65 1.59 1.49 1.34 1.38 1.64 1.65 1.61 1.49 1.50 1.61 1.55 1.37 1.41 1.41 1.36 1.29 1.24 1.22 1.24 1.29 1.48 1.83
1.14 1.16 1.18 1.19 1.23 1.29 1.31 1.28 1.30 1.34 1.40 1.47 1.38 1.34 1.34 1.33 1.41 1.57 1.58 1.63 1.66 1.54 1.46 1.51 1.55 1.58 1.54 1.49 1.55 1.56 1.51 1.41 1.48 1.59 1.49 1.34 1.25 1.25 1.28 1.36 1.39 1.40 1.49
1.12 1.15 1.16 1.14 1.17 1.22 1.27 1.29 1.33 1.41 1.40 1.39 1.33 1.28 1.25 1.21 1.18 1.30 1.46 1.53 1.59 1.56 1.56 1.60 1.56 1.51 1.50 1.51 1.59 1.56 1.44 1.45 1.61 1.64 1.50 1.38 1.35 1.41 1.43 1.48 1.65 1.69 1.81
1.04 1.07 1.09 1.11 1.16 1.24 1.28 1.34 1.40 1.43 1.50 1.51 1.38 1.27 1.27 1.27 1.25 1.39 1.49 1.49 1.56 1.64 1.65 1.55 1.48 1.46 1.48 1.46 1.41 1.42 1.45 1.55 1.63 1.56 1.57 1.57 1.57 1.65 1.70 1.74 1.90 2.00 2.04
1.02 1.02 1.06 1.09 1.15 1.22 1.27 1.35 1.45 1.47 1.47 1.48 1.46 1.37 1.29 1.32 1.38 1.42 1.45 1.53 1.64 1.71 1.66 1.57 1.48 1.40 1.39 1.39 1.38 1.37 1.40 1.47 1.58 1.70 1.75 1.75 1.79 1.87 1.95 1.97 2.10 2.22 2.10
1.00 1.04 1.07 1.09 1.15 1.20 1.19 1.21 1.32 1.36 1.35 1.37 1.40 1.38 1.35 1.35 1.35 1.39 1.46 1.52 1.52 1.54 1.48 1.43 1.39 1.35 1.32 1.31 1.35 1.40 1.42 1.42 1.57 1.81 1.94 1.99 2.04 2.09 2.15 2.20 2.21 2.20 2.02
0.92 1.00 1.01 1.06 1.13 1.16 1.19 1.18 1.16 1.19 1.24 1.27 1.31 1.32 1.32 1.33 1.32 1.35 1.45 1.48 1.48 1.44 1.35 1.32 1.30 1.29 1.32 1.36 1.41 1.50 1.55 1.56 1.68 1.85 1.96 2.03 2.14 2.28 2.32 2.23 2.12 2.05 1.95
0.82 0.89 0.93 0.97 1.03 1.10 1.13 1.17 1.16 1.13 1.13 1.13 1.14 1.23 1.31 1.32 1.32 1.37 1.41 1.37 1.39 1.37 1.30 1.28 1.26 1.30 1.38 1.44 1.48 1.56 1.68 1.80 1.88 2.05 2.11 2.11 2.18 2.39 2.38 2.15 1.99 1.91 1.84
0.78 0.86 0.88 0.90 0.94 1.00 1.04 1.08 1.12 1.09 1.06 1.04 1.07 1.15 1.21 1.26 1.26 1.27 1.31 1.34 1.37 1.38 1.35 1.35 1.33 1.35 1.44 1.51 1.56 1.66 1.80 1.86 1.95 2.08 2.13 2.14 2.19 2.31 2.27 2.02 1.84 1.82 1.71
0.73 0.79 0.83 0.83 0.88 0.95 1.00 1.05 1.10 1.10 1.07 1.02 1.06 1.18 1.34 1.35 1.29 1.23 1.28 1.31 1.35 1.40 1.43 1.46 1.47 1.47 1.52 1.59 1.67 1.73 1.84 1.90 1.97 2.12 2.16 2.10 2.09 2.06 1.88 1.80 1.75 1.73 1.74
0.67 0.71 0.73 0.78 0.82 0.90 0.98 1.02 1.05 1.06 1.05 1.02 1.03 1.12 1.23 1.16 1.12 1.14 1.20 1.23 1.23 1.28 1.36 1.48 1.53 1.52 1.65 1.86 2.04 2.13 2.03 1.95 1.96 2.12 2.17 2.02 1.93 1.85 1.80 1.83 1.79 1.77 1.77
0.62 0.64 0.67 0.72 0.77 0.87 0.92 0.91 0.95 1.00 1.02 1.01 1.00 1.02 1.05 1.07 1.06 1.07 1.10 1.12 1.13 1.15 1.19 1.31 1.43 1.42 1.48 1.74 2.05 2.44 2.56 2.31 2.17 2.27 2.37 2.19 1.95 1.86 1.90 1.92 1.82 1.79 1.73
0.57 0.61 0.65 0.68 0.73 0.77 0.83 0.87 0.91 0.96 0.98 0.98 0.95 0.95 0.98 1.03 1.03 1.01 1.03 1.05 1.07 1.07 1.09 1.21 1.32 1.36 1.39 1.63 1.89 2.08 2.27 2.43 2.62 2.63 2.55 2.53 2.24 1.97 1.94 1.92 1.78 1.68 1.67
0.58 0.60 0.63 0.67 0.70 0.74 0.77 0.81 0.85 0.88 0.92 0.93 0.93 0.93 0.93 0.94 0.95 0.96 0.97 0.99 1.00 1.00 0.97 1.05 1.22 1.34 1.42 1.55 1.75 1.91 2.05 2.23 2.40 2.48 2.45 2.38 2.18 1.95 1.90 1.88 1.76 1.67 1.64
0.56 0.59 0.61 0.64 0.67 0.69 0.73 0.76 0.79 0.82 0.87 0.90 0.91 0.92 0.92 0.92 0.93 0.94 0.96 0.98 1.00 0.97 0.93 0.95 1.03 1.18 1.32 1.46 1.57 1.74 1.89 1.86 1.74 1.73 1.98 2.15 2.06 1.86 1.83 1.90 1.78 1.73 1.70

GEFSGL_prec_meanprecacc_342.txt.gz
Total_Precipitation_Accumulation
1.61 1.66 1.70 1.76 1.89 2.06 2.23 2.32 2.24 2.28 2.33 2.29 2.12 2.05 2.01 1.95 1.96 2.03 2.00 2.05 2.10 2.10 2.10 2.04 1.89 1.79 1.86 1.90 1.94 2.00 2.06 2.19 2.15 1.60 1.35 1.33 1.38 1.35 1.35 1.25 1.16 1.14 1.10
1.64 1.65 1.68 1.70 1.73 1.83 1.92 2.11 2.16 2.22 2.21 2.26 2.19 2.06 1.97 1.89 1.84 1.87 1.85 1.80 1.81 1.85 1.86 1.91 1.86 1.75 1.74 1.77 1.84 1.80 1.75 1.75 1.86 1.69 1.36 1.28 1.24 1.17 1.18 1.20 1.13 1.08 1.01
1.63 1.69 1.68 1.63 1.60 1.63 1.73 1.87 1.94 2.01 2.05 2.08 2.16 2.09 1.95 1.87 1.78 1.74 1.70 1.69 1.66 1.62 1.64 1.72 1.76 1.79 1.77 1.73 1.73 1.71 1.66 1.64 1.70 1.75 1.47 1.27 1.23 1.15 1.15 1.14 1.10 1.07 1.00
1.58 1.68 1.72 1.68 1.62 1.56 1.64 1.74 1.82 1.86 1.91 1.90 1.95 2.04 2.06 2.00 1.89 1.78 1.72 1.67 1.65 1.59 1.56 1.62 1.65 1.65 1.60 1.56 1.60 1.56 1.58 1.65 1.66 1.73 1.64 1.46 1.34 1.23 1.25 1.27 1.24 1.11 1.05
1.48 1.64 1.70 1.74 1.80 1.81 1.73 1.70 1.72 1.75 1.83 1.84 1.84 1.92 1.97 2.02 1.98 1.88 1.80 1.75 1.73 1.70 1.61 1.57 1.59 1.65 1.58 1.53 1.54 1.55 1.59 1.69 1.76 1.81 1.71 1.53 1.40 1.34 1.27 1.16 1.21 1.20 1.14
1.30 1.45 1.54 1.64 1.77 1.92 1.94 1.87 1.81 1.76 1.78 1.85 1.85 1.89 1.91 1.93 2.15 2.12 1.93 1.85 1.78 1.68 1.58 1.46 1.47 1.58 1.57 1.59 1.57 1.56 1.64 1.79 1.88 1.90 1.77 1.54 1.27 1.18 1.22 1.35 1.46 1.62 1.57
1.17 1.22 1.34 1.51 1.61 1.74 1.93 2.03 1.95 1.89 1.92 1.94 1.97 2.00 1.99 2.06 2.17 2.01 1.95 1.78 1.72 1.60 1.46 1.37 1.33 1.32 1.42 1.33 1.40 1.48 1.50 1.61 1.70 1.72 1.66 1.35 1.18 1.14 1.38 1.62 1.64 1.66 1.48
1.16 1.22 1.33 1.43 1.52 1.66 1.85 2.01 2.08 2.06 2.11 2.10 2.08 2.08 2.06 2.05 2.10 1.96 1.93 1.73 1.63 1.49 1.37 1.26 1.23 1.20 1.24 1.35 1.45 1.53 1.42 1.33 1.30 1.25 1.23 1.17 1.15 1.24 1.52 1.82 1.97 2.03 1.76
1.11 1.18 1.26 1.38 1.47 1.58 1.75 1.90 2.00 2.06 2.12 2.15 2.03 1.95 1.87 1.86 1.91 1.79 1.79 1.69 1.67 1.53 1.40 1.32 1.27 1.20 1.33 1.55 1.64 1.65 1.47 1.27 1.24 1.27 1.33 1.34 1.42 1.51 1.63 1.97 2.25 2.41 2.16
1.12 1.15 1.17 1.28 1.40 1.49 1.61 1.75 1.89 1.97 1.99 1.95 1.88 1.78 1.69 1.65 1.76 1.66 1.67 1.68 1.70 1.56 1.45 1.39 1.46 1.38 1.49 1.63 1.60 1.63 1.53 1.28 1.19 1.18 1.21 1.24 1.18 1.22 1.45 1.63 2.09 2.59 2.30
1.13 1.16 1.17 1.22 1.34 1.43 1.44 1.50 1.61 1.69 1.70 1.68 1.60 1.59 1.57 1.57 1.62 1.55 1.54 1.57 1.63 1.62 1.56 1.45 1.41 1.61 1.68 1.71 1.61 1.42 1.42 1.46 1.36 1.28 1.25 1.24 1.22 1.20 1.21 1.24 1.53 2.28 2.66
1.12 1.15 1.20 1.24 1.28 1.33 1.33 1.32 1.34 1.40 1.47 1.51 1.43 1.41 1.46 1.51 1.54 1.56 1.59 1.62 1.66 1.60 1.50 1.35 1.38 1.65 1.66 1.62 1.51 1.51 1.62 1.57 1.40 1.43 1.43 1.38 1.32 1.28 1.26 1.27 1.32 1.51 1.86
1.15 1.17 1.19 1.20 1.24 1.29 1.31 1.29 1.30 1.35 1.40 1.47 1.39 1.35 1.34 1.33 1.41 1.58 1.59 1.64 1.67 1.55 1.47 1.53 1.56 1.60 1.55 1.50 1.56 1.57 1.52 1.43 1.50 1.62 1.52 1.37 1.28 1.29 1.33 1.40 1.43 1.43 1.52
1.13 1.16 1.18 1.15 1.19 1.24 1.28 1.29 1.34 1.41 1.40 1.39 1.34 1.29 1.25 1.21 1.19 1.30 1.47 1.54 1.60 1.57 1.58 1.61 1.57 1.52 1.51 1.52 1.60 1.58 1.45 1.46 1.63 1.67 1.53 1.41 1.38 1.44 1.47 1.52 1.70 1.73 1.85
1.05 1.08 1.11 1.13 1.18 1.26 1.30 1.35 1.41 1.44 1.50 1.52 1.39 1.28 1.28 1.28 1.26 1.40 1.50 1.50 1.58 1.66 1.67 1.57 1.50 1.48 1.50 1.47 1.42 1.42 1.46 1.56 1.65 1.57 1.59 1.60 1.60 1.69 1.74 1.78 1.95 2.05 2.10
1.03 1.03 1.08 1.10 1.17 1.23 1.28 1.36 1.47 1.48 1.48 1.48 1.47 1.38 1.30 1.33 1.39 1.44 1.47 1.55 1.66 1.74 1.69 1.60 1.50 1.42 1.40 1.40 1.38 1.38 1.41 1.48 1.59 1.71 1.76 1.77 1.81 1.90 1.98 2.01 2.15 2.27 2.15
1.02 1.05 1.09 1.11 1.16 1.22 1.20 1.22 1.33 1.38 1.36 1.37 1.41 1.39 1.36 1.36 1.36 1.40 1.48 1.54 1.54 1.56 1.52 1.46 1.41 1.36 1.33 1.32 1.36 1.41 1.43 1.42 1.58 1.82 1.96 2.00 2.06 2.11 2.18 2.24 2.25 2.25 2.07
0.93 1.01 1.03 1.07 1.15 1.18 1.20 1.20 1.18 1.20 1.25 1.28 1.32 1.33 1.33 1.34 1.33 1.37 1.47 1.50 1.50 1.45 1.37 1.34 1.32 1.30 1.33 1.37 1.42 1.50 1.56 1.57 1.69 1.87 1.98 2.04 2.16 2.31 2.35 2.27 2.16 2.10 2.00
0.83 0.90 0.94 0.98 1.05 1.12 1.15 1.18 1.17 1.14 1.14 1.15 1.15 1.24 1.32 1.33 1.33 1.38 1.42 1.38 1.41 1.38 1.32 1.29 1.27 1.31 1.39 1.45 1.49 1.56 1.68 1.81 1.89 2.06 2.12 2.12 2.19 2.41 2.41 2.18 2.03 1.95 1.89
0.79 0.87 0.90 0.92 0.96 1.02 1.05 1.10 1.14 1.11 1.08 1.06 1.09 1.16 1.22 1.28 1.28 1.29 1.32 1.35 1.38 1.39 1.36 1.36 1.34 1.36 1.45 1.53 1.58 1.68 1.81 1.87 1.96 2.09 2.14 2.16 2.21 2.33 2.30 2.04 1.88 1.86 1.76
0.74 0.79 0.84 0.84 0.89 0.96 1.02 1.07 1.11 1.12 1.08 1.04 1.07 1.19 1.36 1.38 1.31 1.25 1.29 1.32 1.37 1.41 1.44 1.48 1.48 1.49 1.53 1.61 1.69 1.74 1.85 1.91 1.98 2.14 2.17 2.12 2.11 2.08 1.90 1.83 1.78 1.77 1.79
0.68 0.72 0.75 0.79 0.84 0.92 1.00 1.04 1.06 1.08 1.06 1.03 1.04 1.13 1.25 1.18 1.13 1.15 1.22 1.24 1.24 1.29 1.37 1.50 1.54 1.54 1.67 1.88 2.06 2.14 2.05 1.96 1.97 2.14 2.18 2.04 1.95 1.87 1.83 1.87 1.83 1.81 1.82
0.63 0.66 0.69 0.73 0.79 0.88 0.93 0.93 0.97 1.01 1.03 1.02 1.01 1.03 1.07 1.09 1.07 1.09 1.12 1.14 1.14 1.17 1.21 1.33 1.45 1.44 1.49 1.76 2.07 2.46 2.59 2.33 2.19 2.29 2.39 2.22 1.98 1.89 1.94 1.96 1.86 1.83 1.78
0.59 0.63 0.66 0.70 0.74 0.79 0.84 0.88 0.92 0.97 0.99 0.99 0.96 0.96 1.00 1.04 1.04 1.03 1.04 1.06 1.08 1.08 1.11 1.22 1.35 1.38 1.41 1.65 1.90 2.10 2.29 2.45 2.65 2.66 2.59 2.57 2.28 2.01 1.98 1.96 1.82 1.72 1.71
0.59 0.61 0.64 0.68 0.72 0.76 0.79 0.82 0.86 0.89 0.93 0.94 0.94 0.94 0.94 0.95 0.97 0.97 0.99 1.01 1.02 1.01 0.98 1.06 1.24 1.36 1.43 1.57 1.76 1.92 2.07 2.25 2.43 2.52 2.49 2.43 2.23 1.99 1.95 1.93 1.81 1.72 1.69
0.57 0.59 0.62 0.65 0.68 0.70 0.74 0.77 0.80 0.83 0.88 0.91 0.92 0.93 0.93 0.93 0.94 0.95 0.97 0.99 1.01 0.98 0.94 0.96 1.05 1.20 1.34 1.48 1.58 1.75 1.91 1.89 1.77 1.76 2.03 2.21 2.11 1.91 1.88 1.96 1.84 1.78 1.75

GEFSGL_prec_meanprecacc_348.txt.gz
Total_Precipitation_Accumulation
1.63 1.67 1.72 1.79 1.93 2.12 2.31 2.39 2.31 2.34 2.38 2.34 2.18 2.09 2.05 1.98 2.00 2.07 2.06 2.10 2.14 2.14 2.13 2.06 1.91 1.80 1.87 1.92 1.95 2.01 2.07 2.20 2.16 1.60 1.36 1.34 1.39 1.37 1.38 1.29 1.20 1.17 1.12
1.66 1.66 1.70 1.72 1.75 1.86 1.96 2.17 2.22 2.29 2.29 2.34 2.25 2.11 2.01 1.92 1.87 1.89 1.87 1.84 1.85 1.88 1.89 1.94 1.87 1.76 1.75 1.78 1.85 1.82 1.77 1.76 1.87 1.69 1.37 1.28 1.26 1.19 1.21 1.23 1.17 1.11 1.03
1.64 1.70 1.69 1.64 1.62 1.66 1.77 1.91 1.99 2.07 2.11 2.15 2.24 2.16 2.01 1.91 1.82 1.77 1.73 1.71 1.69 1.64 1.66 1.73 1.77 1.81 1.79 1.75 1.75 1.72 1.67 1.65 1.71 1.76 1.48 1.28 1.24 1.17 1.18 1.17 1.13 1.10 1.03
1.59 1.70 1.73 1.68 1.63 1.58 1.67 1.78 1.86 1.90 1.97 1.95 2.02 2.12 2.14 2.06 1.95 1.84 1.77 1.72 1.69 1.62 1.58 1.64 1.66 1.66 1.62 1.58 1.62 1.58 1.60 1.67 1.67 1.75 1.66 1.47 1.35 1.25 1.27 1.29 1.26 1.13 1.07
1.49 1.66 1.71 1.75 1.81 1.82 1.75 1.73 1.77 1.80 1.88 1.89 1.89 1.97 2.04 2.08 2.05 1.95 1.86 1.80 1.78 1.76 1.67 1.62 1.63 1.69 1.62 1.56 1.57 1.57 1.61 1.72 1.78 1.83 1.73 1.54 1.41 1.36 1.30 1.19 1.24 1.22 1.16
1.32 1.46 1.57 1.66 1.78 1.93 1.95 1.89 1.85 1.81 1.83 1.89 1.89 1.93 1.95 1.97 2.20 2.19 1.98 1.89 1.82 1.72 1.62 1.51 1.51 1.62 1.61 1.62 1.60 1.59 1.67 1.81 1.90 1.92 1.79 1.56 1.28 1.20 1.24 1.37 1.49 1.65 1.59
1.19 1.24 1.37 1.54 1.63 1.75 1.95 2.04 1.97 1.92 1.96 1.98 2.01 2.04 2.03 2.10 2.21 2.05 1.99 1.82 1.76 1.63 1.49 1.40 1.35 1.34 1.45 1.36 1.42 1.51 1.52 1.63 1.72 1.74 1.68 1.36 1.19 1.15 1.41 1.65 1.67 1.69 1.50
1.17 1.23 1.36 1.46 1.54 1.68 1.87 2.03 2.10 2.08 2.14 2.14 2.11 2.12 2.10 2.09 2.13 1.99 1.96 1.77 1.65 1.51 1.39 1.28 1.25 1.23 1.26 1.37 1.46 1.54 1.43 1.34 1.32 1.26 1.24 1.18 1.16 1.26 1.54 1.85 2.00 2.06 1.78
1.12 1.19 1.27 1.40 1.49 1.60 1.78 1.93 2.03 2.09 2.16 2.19 2.07 1.98 1.90 1.89 1.94 1.81 1.81 1.71 1.69 1.55 1.41 1.33 1.29 1.21 1.34 1.57 1.65 1.67 1.48 1.28 1.26 1.30 1.35 1.36 1.44 1.53 1.66 2.01 2.29 2.46 2.19
1.13 1.16 1.18 1.29 1.41 1.51 1.63 1.78 1.92 2.00 2.02 1.98 1.90 1.80 1.71 1.67 1.78 1.68 1.69 1.69 1.71 1.57 1.46 1.40 1.47 1.39 1.50 1.64 1.62 1.65 1.55 1.30 1.20 1.20 1.22 1.25 1.19 1.23 1.47 1.65 2.12 2.63 2.34
1.14 1.17 1.18 1.23 1.35 1.44 1.46 1.52 1.64 1.72 1.73 1.70 1.61 1.60 1.58 1.58 1.63 1.56 1.55 1.58 1.64 1.63 1.56 1.45 1.41 1.61 1.69 1.72 1.63 1.45 1.44 1.49 1.39 1.30 1.26 1.25 1.23 1.21 1.22 1.26 1.56 2.32 2.70
1.13 1.17 1.21 1.26 1.29 1.34 1.34 1.34 1.36 1.41 1.48 1.52 1.44 1.42 1.47 1.51 1.54 1.56 1.59 1.63 1.67 1.61 1.51 1.36 1.39 1.66 1.68 1.64 1.52 1.52 1.64 1.58 1.41 1.45 1.44 1.39 1.33 1.29 1.27 1.29 1.34 1.54 1.89
1.16 1.18 1.20 1.22 1.26 1.31 1.33 1.30 1.32 1.36 1.41 1.48 1.39 1.35 1.35 1.34 1.41 1.58 1.59 1.65 1.67 1.56 1.48 1.53 1.57 1.61 1.57 1.51 1.57 1.58 1.53 1.44 1.52 1.63 1.54 1.39 1.29 1.30 1.34 1.42 1.44 1.45 1.54
1.15 1.17 1.19 1.17 1.20 1.25 1.30 1.31 1.35 1.42 1.41 1.40 1.34 1.29 1.26 1.22 1.19 1.30 1.47 1.54 1.61 1.58 1.58 1.62 1.58 1.53 1.52 1.53 1.61 1.59 1.46 1.47 1.64 1.68 1.54 1.42 1.40 1.46 1.48 1.54 1.71 1.76 1.88
1.06 1.09 1.12 1.14 1.19 1.27 1.32 1.37 1.43 1.46 1.52 1.53 1.40 1.29 1.28 1.29 1.26 1.41 1.51 1.51 1.59 1.67 1.69 1.59 1.51 1.49 1.51 1.48 1.43 1.44 1.47 1.57 1.66 1.59 1.61 1.61 1.62 1.70 1.75 1.79 1.97 2.08 2.12
1.04 1.04 1.09 1.12 1.18 1.25 1.30 1.38 1.49 1.50 1.50 1.49 1.48 1.39 1.31 1.34 1.40 1.45 1.48 1.57 1.68 1.76 1.72 1.63 1.51 1.43 1.42 1.41 1.39 1.39 1.41 1.49 1.60 1.73 1.78 1.78 1.83 1.91 2.00 2.02 2.16 2.30 2.18
1.02 1.06 1.10 1.12 1.17 1.23 1.21 1.24 1.35 1.39 1.36 1.38 1.42 1.40 1.37 1.37 1.38 1.42 1.50 1.56 1.56 1.58 1.54 1.48 1.42 1.37 1.34 1.33 1.36 1.41 1.44 1.43 1.59 1.83 1.97 2.02 2.08 2.13 2.20 2.26 2.27 2.27 2.10
0.94 1.02 1.04 1.09 1.16 1.19 1.22 1.21 1.19 1.21 1.26 1.29 1.33 1.34 1.34 1.35 1.34 1.38 1.48 1.52 1.52 1.47 1.38 1.35 1.33 1.31 1.34 1.38 1.42 1.51 1.57 1.58 1.70 1.88 1.99 2.06 2.18 2.33 2.38 2.29 2.18 2.13 2.03
0.84 0.91 0.96 1.00 1.06 1.13 1.16 1.20 1.19 1.15 1.16 1.16 1.16 1.25 1.33 1.34 1.34 1.39 1.43 1.40 1.42 1.39 1.32 1.30 1.28 1.32 1.39 1.45 1.49 1.57 1.69 1.82 1.90 2.07 2.13 2.13 2.21 2.43 2.43 2.20 2.05 1.98 1.92
0.80 0.88 0.91 0.93 0.97 1.03 1.07 1.11 1.15 1.12 1.09 1.07 1.10 1.17 1.23 1.29 1.29 1.30 1.34 1.36 1.40 1.40 1.37 1.37 1.35 1.37 1.45 1.53 1.58 1.68 1.82 1.88 1.97 2.10 2.15 2.17 2.22 2.35 2.32 2.07 1.90 1.90 1.80
0.75 0.80 0.85 0.85 0.90 0.97 1.03 1.08 1.12 1.13 1.09 1.05 1.08 1.20 1.37 1.40 1.32 1.26 1.30 1.33 1.38 1.43 1.45 1.49 1.49 1.50 1.54 1.62 1.70 1.75 1.86 1.92 1.99 2.15 2.18 2.13 2.13 2.10 1.92 1.86 1.80 1.80 1.82
0.69 0.72 0.75 0.80 0.84 0.93 1.01 1.05 1.08 1.09 1.07 1.04 1.05 1.14 1.26 1.20 1.15 1.16 1.23 1.25 1.26 1.30 1.38 1.51 1.55 1.55 1.68 1.89 2.07 2.16 2.06 1.97 1.98 2.15 2.20 2.05 1.97 1.89 1.85 1.89 1.85 1.84 1.85
0.64 0.67 0.69 0.74 0.79 0.89 0.94 0.94 0.98 1.03 1.05 1.04 1.03 1.04 1.08 1.10 1.09 1.10 1.13 1.15 1.15 1.18 1.22 1.34 1.46 1.45 1.50 1.77 2.08 2.48 2.61 2.35 2.20 2.30 2.41 2.24 2.00 1.91 1.96 1.99 1.89 1.86 1.81
0.60 0.63 0.67 0.70 0.75 0.80 0.85 0.89 0.93 0.98 1.01 1.00 0.98 0.98 1.01 1.05 1.06 1.05 1.06 1.08 1.09 1.10 1.12 1.24 1.36 1.39 1.42 1.66 1.92 2.12 2.31 2.47 2.67 2.69 2.62 2.61 2.31 2.04 2.01 1.99 1.85 1.75 1.74
0.60 0.62 0.65 0.69 0.72 0.76 0.79 0.83 0.86 0.90 0.94 0.95 0.95 0.95 0.95 0.96 0.99 1.00 1.01 1.02 1.03 1.02 0.99 1.08 1.25 1.38 1.45 1.58 1.78 1.94 2.09 2.27 2.45 2.55 2.54 2.48 2.27 2.02 1.98 1.96 1.84 1.75 1.72
0.58 0.60 0.62 0.65 0.68 0.71 0.74 0.78 0.81 0.84 0.89 0.92 0.93 0.93 0.94 0.94 0.96 0.98 1.00 1.01 1.02 0.99 0.95 0.97 1.06 1.22 1.35 1.49 1.60 1.77 1.92 1.91 1.79 1.79 2.07 2.26 2.15 1.94 1.91 1.99 1.87 1.81 1.78

GEFSGL_prec_meanprecacc_354.txt.gz
Total_Precipitation_Accumulation
1.65 1.70 1.75 1.83 1.99 2.18 2.37 2.46 2.36 2.39 2.43 2.39 2.24 2.17 2.12 2.05 2.07 2.12 2.10 2.14 2.18 2.17 2.17 2.10 1.94 1.83 1.90 1.94 1.97 2.04 2.10 2.23 2.18 1.62 1.37 1.35 1.40 1.38 1.39 1.29 1.21 1.18 1.13
1.68 1.68 1.72 1.75 1.78 1.91 2.01 2.22 2.27 2.35 2.34 2.38 2.30 2.18 2.08 1.99 1.94 1.96 1.92 1.89 1.89 1.91 1.92 1.97 1.90 1.79 1.77 1.80 1.87 1.84 1.79 1.79 1.89 1.71 1.38 1.29 1.26 1.20 1.21 1.24 1.18 1.12 1.05
1.67 1.72 1.71 1.67 1.64 1.68 1.80 1.94 2.02 2.11 2.15 2.20 2.29 2.22 2.07 1.98 1.89 1.83 1.78 1.75 1.72 1.67 1.70 1.77 1.81 1.83 1.80 1.77 1.77 1.74 1.69 1.67 1.73 1.78 1.50 1.29 1.25 1.18 1.19 1.18 1.14 1.11 1.04
1.61 1.72 1.75 1.70 1.65 1.59 1.68 1.80 1.88 1.93 2.00 1.98 2.05 2.16 2.18 2.11 2.00 1.90 1.83 1.77 1.73 1.65 1.61 1.67 1.70 1.70 1.64 1.60 1.65 1.61 1.63 1.70 1.71 1.78 1.69 1.50 1.38 1.27 1.29 1.30 1.28 1.15 1.09
1.50 1.67 1.73 1.77 1.82 1.84 1.76 1.75 1.78 1.82 1.89 1.91 1.91 2.00 2.07 2.12 2.09 2.00 1.92 1.87 1.84 1.81 1.71 1.66 1.66 1.73 1.65 1.59 1.59 1.59 1.63 1.75 1.82 1.87 1.77 1.58 1.45 1.40 1.33 1.21 1.26 1.23 1.17
1.33 1.47 1.58 1.68 1.80 1.95 1.96 1.90 1.86 1.82 1.84 1.91 1.91 1.95 1.99 2.01 2.24 2.23 2.03 1.95 1.89 1.78 1.68 1.55 1.55 1.67 1.66 1.66 1.63 1.61 1.69 1.83 1.92 1.94 1.81 1.58 1.31 1.24 1.29 1.41 1.53 1.68 1.62
1.20 1.25 1.38 1.55 1.64 1.76 1.96 2.05 1.98 1.94 1.99 2.00 2.04 2.07 2.06 2.14 2.25 2.09 2.03 1.86 1.81 1.69 1.55 1.45 1.40 1.39 1.50 1.39 1.45 1.53 1.54 1.64 1.73 1.75 1.69 1.38 1.21 1.18 1.44 1.68 1.71 1.72 1.53
1.18 1.24 1.36 1.46 1.55 1.69 1.88 2.04 2.11 2.10 2.17 2.17 2.15 2.15 2.13 2.14 2.18 2.04 2.00 1.81 1.70 1.57 1.45 1.34 1.30 1.28 1.31 1.42 1.50 1.57 1.45 1.36 1.33 1.27 1.25 1.19 1.18 1.28 1.57 1.88 2.04 2.09 1.81
1.13 1.21 1.28 1.40 1.50 1.62 1.79 1.95 2.05 2.11 2.18 2.21 2.11 2.02 1.94 1.93 1.99 1.86 1.86 1.75 1.74 1.60 1.47 1.39 1.34 1.26 1.39 1.61 1.69 1.70 1.50 1.30 1.27 1.31 1.37 1.37 1.46 1.55 1.68 2.04 2.33 2.49 2.22
1.14 1.18 1.19 1.30 1.43 1.52 1.64 1.79 1.93 2.02 2.04 2.00 1.94 1.85 1.75 1.71 1.82 1.73 1.74 1.74 1.75 1.61 1.50 1.44 1.51 1.43 1.54 1.68 1.65 1.68 1.57 1.31 1.21 1.21 1.23 1.26 1.20 1.24 1.48 1.67 2.14 2.65 2.36
1.16 1.19 1.19 1.24 1.37 1.46 1.47 1.54 1.66 1.74 1.75 1.72 1.64 1.64 1.62 1.62 1.67 1.61 1.59 1.62 1.68 1.67 1.60 1.49 1.45 1.65 1.72 1.75 1.66 1.47 1.46 1.50 1.40 1.31 1.27 1.26 1.24 1.22 1.23 1.27 1.57 2.34 2.72
1.16 1.19 1.23 1.27 1.30 1.36 1.36 1.36 1.39 1.44 1.51 1.55 1.47 1.45 1.51 1.56 1.59 1.61 1.63 1.67 1.70 1.65 1.55 1.39 1.41 1.68 1.70 1.66 1.54 1.54 1.65 1.60 1.43 1.45 1.45 1.40 1.34 1.30 1.28 1.30 1.35 1.54 1.90
1.18 1.20 1.23 1.24 1.28 1.33 1.35 1.33 1.35 1.38 1.44 1.51 1.42 1.38 1.38 1.38 1.46 1.63 1.63 1.69 1.70 1.59 1.50 1.56 1.59 1.63 1.58 1.53 1.58 1.59 1.54 1.45 1.52 1.63 1.54 1.39 1.29 1.30 1.35 1.43 1.45 1.45 1.54
1.16 1.19 1.21 1.19 1.23 1.29 1.33 1.34 1.38 1.45 1.44 1.42 1.37 1.32 1.28 1.25 1.22 1.34 1.51 1.58 1.64 1.60 1.60 1.64 1.60 1.55 1.54 1.54 1.62 1.59 1.47 1.48 1.65 1.69 1.55 1.43 1.40 1.46 1.49 1.54 1.72 1.76 1.89
1.07 1.10 1.13 1.16 1.21 1.30 1.35 1.41 1.47 1.50 1.55 1.56 1.42 1.32 1.31 1.31 1.29 1.43 1.54 1.54 1.62 1.69 1.72 1.62 1.53 1.50 1.52 1.49 1.44 1.44 1.47 1.57 1.67 1.59 1.62 1.62 1.62 1.71 1.76 1.80 1.98 2.09 2.14
1.05 1.05 1.10 1.13 1.20 1.27 1.32 1.42 1.53 1.54 1.53 1.53 1.51 1.42 1.34 1.37 1.43 1.48 1.51 1.60 1.71 1.79 1.76 1.66 1.53 1.44 1.43 1.42 1.40 1.40 1.42 1.50 1.61 1.73 1.79 1.80 1.84 1.93 2.01 2.03 2.17 2.31 2.19
1.03 1.07 1.11 1.13 1.19 1.25 1.24 1.26 1.37 1.42 1.39 1.41 1.45 1.42 1.40 1.40 1.40 1.45 1.53 1.59 1.58 1.61 1.57 1.50 1.43 1.38 1.35 1.34 1.37 1.42 1.44 1.44 1.60 1.84 1.98 2.03 2.09 2.14 2.21 2.27 2.28 2.28 2.11
0.95 1.03 1.05 1.10 1.17 1.21 1.23 1.23 1.21 1.23 1.28 1.32 1.36 1.37 1.37 1.38 1.36 1.41 1.50 1.55 1.54 1.49 1.39 1.36 1.34 1.32 1.35 1.39 1.43 1.52 1.57 1.58 1.71 1.88 2.00 2.06 2.19 2.34 2.39 2.31 2.20 2.14 2.05
0.85 0.92 0.97 1.01 1.08 1.15 1.17 1.22 1.21 1.17 1.17 1.18 1.18 1.27 1.35 1.36 1.36 1.41 1.45 1.42 1.44 1.41 1.34 1.31 1.29 1.33 1.40 1.46 1.50 1.58 1.70 1.82 1.90 2.08 2.14 2.14 2.22 2.45 2.45 2.22 2.07 2.00 1.94
0.80 0.89 0.92 0.95 0.98 1.04 1.08 1.13 1.16 1.14 1.11 1.08 1.11 1.19 1.25 1.31 1.31 1.32 1.35 1.38 1.41 1.42 1.38 1.38 1.36 1.38 1.47 1.54 1.59 1.69 1.83 1.89 1.98 2.10 2.16 2.18 2.24 2.37 2.34 2.08 1.92 1.91 1.82
0.76 0.81 0.86 0.86 0.91 0.98 1.04 1.10 1.14 1.14 1.11 1.06 1.09 1.22 1.39 1.42 1.34 1.27 1.31 1.35 1.40 1.44 1.47 1.50 1.50 1.51 1.55 1.63 1.71 1.76 1.87 1.93 2.00 2.15 2.19 2.14 2.14 2.11 1.94 1.87 1.82 1.82 1.84
0.70 0.73 0.76 0.81 0.85 0.93 1.01 1.06 1.09 1.10 1.08 1.06 1.06 1.15 1.27 1.21 1.16 1.17 1.24 1.26 1.27 1.31 1.39 1.52 1.57 1.56 1.69 1.90 2.08 2.17 2.07 1.98 1.99 2.16 2.21 2.06 1.98 1.91 1.86 1.91 1.87 1.86 1.87
0.65 0.67 0.70 0.75 0.80 0.90 0.95 0.94 0.98 1.03 1.05 1.04 1.03 1.05 1.09 1.11 1.09 1.11 1.14 1.16 1.16 1.19 1.23 1.35 1.47 1.46 1.51 1.78 2.09 2.49 2.62 2.35 2.21 2.31 2.42 2.25 2.01 1.93 1.97 2.01 1.91 1.88 1.83
0.60 0.64 0.67 0.71 0.75 0.80 0.86 0.90 0.94 0.99 1.01 1.01 0.98 0.98 1.02 1.06 1.07 1.05 1.07 1.08 1.10 1.10 1.13 1.25 1.37 1.40 1.43 1.66 1.93 2.13 2.31 2.48 2.69 2.70 2.64 2.63 2.33 2.06 2.03 2.01 1.87 1.78 1.77
0.60 0.63 0.66 0.69 0.73 0.77 0.80 0.83 0.87 0.91 0.95 0.96 0.96 0.96 0.96 0.97 1.00 1.00 1.02 1.04 1.04 1.03 1.00 1.08 1.26 1.38 1.45 1.58 1.78 1.94 2.10 2.28 2.46 2.57 2.56 2.50 2.29 2.05 2.00 1.99 1.87 1.77 1.74
0.59 0.60 0.63 0.66 0.69 0.72 0.75 0.78 0.81 0.84 0.90 0.92 0.94 0.94 0.94 0.95 0.97 0.99 1.01 1.03 1.04 1.00 0.96 0.98 1.06 1.22 1.36 1.50 1.60 1.78 1.93 1.92 1.80 1.81 2.10 2.29 2.18 1.96 1.94 2.02 1.90 1.84 1.80